This is the latest recevied weather packets stored in our database for station/object K3HW. If no packets are shown the sender has not sent any weather packets the latest 1 day(s).
| Time | Temp. | Humidity | Pressure | Rain* | Wind** | Luminosity | Snow |
|---|---|---|---|---|---|---|---|
| 1778066292 | 18.33° C | 72% | 1012.9 hPa | 0 mm | 0 m/s | 25 W/m² | - |
| 1778065989 | 18.33° C | 71% | 1012.6 hPa | 0 mm | 0 m/s | 23 W/m² | - |
| 1778065687 | 18.33° C | 71% | 1012.7 hPa | 0 mm | 0 m/s | 26 W/m² | - |
| 1778065384 | 18.33° C | 72% | 1012.5 hPa | 0 mm | 0 m/s | 13 W/m² | - |
| 1778065080 | 18.33° C | 71% | 1012.5 hPa | 0 mm | 0 m/s | 25 W/m² | - |
| 1778064777 | 18.33° C | 72% | 1012.5 hPa | 0 mm | 0 m/s | 28 W/m² | - |
| 1778064475 | 18.33° C | 71% | 1012.4 hPa | 0 mm | 0 m/s | 15 W/m² | - |
| 1778064172 | 18.33° C | 72% | 1012.2 hPa | 0 mm | 0 m/s | 12 W/m² | - |
| 1778063871 | 18.33° C | 71% | 1012.5 hPa | 0 mm | 0 m/s | 10 W/m² | - |
| 1778063567 | 18.33° C | 71% | 1012.3 hPa | 0 mm | 0 m/s | 6 W/m² | - |
| 1778063264 | 18.33° C | 71% | 1012.6 hPa | 0 mm | 0 m/s | 5 W/m² | - |
| 1778062962 | 18.33° C | 71% | 1012.3 hPa | 0 mm | 0 m/s | 6 W/m² | - |
| 1778062659 | 18.33° C | 71% | 1012.1 hPa | 0 mm | 0 m/s | 5 W/m² | - |
| 1778062355 | 18.33° C | 71% | 1012.4 hPa | 0 mm | 0 m/s | 3 W/m² | - |
| 1778062053 | 18.33° C | 72% | 1012.1 hPa | 0 mm | 0 m/s | 2 W/m² | - |
| 1778061751 | 18.33° C | 71% | 1012.4 hPa | 0 mm | 0 m/s | 2 W/m² | - |
| 1778061450 | 18.33° C | 71% | 1012.5 hPa | 0 mm | 0 m/s | 1 W/m² | - |
| 1778061146 | 18.33° C | 71% | 1012.6 hPa | 0 mm | 0 m/s | 1 W/m² | - |
| 1778060843 | 18.33° C | 71% | 1012.5 hPa | 0 mm | 0 m/s | 0 W/m² | - |
| 1778060541 | 18.33° C | 71% | 1012.4 hPa | 0 mm | 0 m/s | 0 W/m² | - |
| 1778060240 | 18.33° C | 71% | 1012.4 hPa | 0 mm | 0 m/s | 0 W/m² | - |
| 1778059936 | 18.89° C | 70% | 1012.2 hPa | 0 mm | 0 m/s | 0 W/m² | - |
| 1778059634 | 18.89° C | 70% | 1012.5 hPa | 0 mm | 0 m/s | 0 W/m² | - |
| 1778059331 | 18.89° C | 70% | 1012.4 hPa | 0 mm | 0 m/s | 0 W/m² | - |
| 1778059029 | 18.89° C | 69% | 1012.4 hPa | 0 mm | 0 m/s | 0 W/m² | - |
* Rain latest hour (hover to see other rain measurements)
** Current wind speed in m/s (hover to see current wind gust speed)